Temperature
21 21 20 20 20 19 19 18 18 18 17 17 17 17 17 16 16 16 16 16 16 16 16 16 16 16 16 16 16 16 15 15 15 16 16 16 16 15 15 15 15 14 14
21 21 20 20 20 20 19 19 18 18 18 17 17 17 17 16 16 16 16 16 16 16 16 16 16 16 16 16 16 15 15 15 15 15 16 15 15 15 15 15 15 14 14
21 21 20 20 20 20 19 19 19 18 18 17 17 17 17 17 16 16 16 16 16 16 16 16 16 16 15 15 15 15 15 15 15 15 15 15 15 15 15 15 15 14 14
22 21 21 20 20 20 19 19 19 18 18 18 17 17 17 17 16 16 16 16 16 16 16 16 16 16 15 15 15 15 15 15 15 15 15 15 15 15 15 15 15 14 14
22 21 21 20 20 20 19 19 19 18 18 18 18 17 17 17 17 16 16 16 16 16 16 16 16 15 15 15 15 15 15 15 15 15 15 15 15 15 15 14 14 14 14
22 22 21 21 20 20 19 19 19 18 18 18 18 17 17 17 17 16 16 16 16 16 16 16 16 15 15 15 15 15 15 15 15 15 14 14 14 14 14 14 14 14 14
22 22 21 21 20 20 19 19 19 19 18 18 18 18 17 17 17 17 17 16 16 16 16 16 16 15 15 15 15 15 15 14 15 14 14 14 14 14 14 14 14 14 14
23 22 21 21 20 20 19 19 19 19 18 18 18 18 17 17 17 17 17 17 16 16 16 16 16 15 15 15 15 15 14 14 14 14 14 14 14 14 14 13 13 13 13
23 22 22 21 20 20 19 19 19 19 18 18 18 18 18 17 17 17 17 17 16 16 16 16 16 15 15 15 15 15 14 14 14 14 14 13 13 13 13 13 13 13 13
23 22 22 21 20 20 19 19 19 19 19 18 18 18 18 18 17 17 17 17 17 16 16 16 16 15 15 15 15 14 14 14 14 14 14 13 13 13 13 13 13 13 13
23 22 22 21 20 20 19 19 19 19 19 18 18 18 18 18 17 17 17 17 17 16 16 16 16 15 15 15 14 14 14 14 14 13 13 13 13 13 13 13 13 13 12
23 22 21 21 20 20 19 19 19 19 19 19 18 18 18 18 17 17 17 17 16 16 16 16 16 15 15 15 14 14 14 14 13 13 13 13 13 13 13 13 12 12 12
22 22 21 21 20 20 19 19 19 19 19 18 18 18 18 18 17 17 17 16 16 16 16 16 16 15 15 15 14 14 14 14 13 13 13 13 13 13 13 13 12 12 12
22 22 21 20 20 20 19 19 19 19 19 18 18 18 18 17 17 17 16 16 16 16 16 16 15 15 15 15 15 14 14 14 13 13 13 13 13 13 12 12 12 12 12
22 22 21 20 20 20 19 19 19 19 19 18 18 18 18 17 17 17 16 16 16 16 15 15 15 15 15 15 14 14 14 14 13 13 13 13 13 13 12 12 12 12 12
22 21 21 20 20 20 19 19 19 19 18 18 18 18 17 17 17 16 16 16 16 15 15 15 15 15 14 14 14 14 14 14 13 13 13 13 13 12 12 12 12 12 12
22 21 21 21 20 20 19 19 19 18 18 18 18 17 17 17 17 16 16 16 15 15 15 15 15 15 15 14 14 14 14 14 13 13 13 13 12 12 12 12 12 12 11
22 21 21 21 20 20 20 19 19 18 18 18 17 17 17 17 16 16 16 15 15 15 15 14 14 14 14 14 14 14 13 13 13 13 13 13 12 12 12 12 11 11 11
21 21 21 21 21 20 20 19 19 18 18 17 17 17 17 16 16 16 15 15 15 15 15 14 14 14 14 14 14 13 13 13 13 13 12 12 12 12 12 11 11 11 11
21 20 21 20 20 20 20 19 18 18 17 17 17 17 16 16 16 16 15 15 15 15 14 14 14 14 14 14 13 13 13 13 12 12 12 12 12 11 11 11 11 11 11
20 20 20 20 20 20 19 19 18 18 17 17 17 16 16 16 15 15 15 15 14 14 14 13 13 13 13 13 13 13 13 12 12 12 12 11 11 11 11 11 11 10 10
19 19 19 19 19 19 19 18 18 18 17 17 16 16 15 15 15 15 14 14 14 13 13 13 13 13 12 12 12 12 12 12 11 11 11 11 11 11 10 10 10 10 10
19 19 18 18 18 18 18 18 17 17 17 16 16 15 15 15 14 14 14 13 13 13 13 12 12 12 12 12 12 12 12 11 11 11 11 10 10 10 10 10 10 9 9
18 18 18 18 17 17 17 17 17 16 16 16 15 15 14 14 14 13 13 13 13 12 12 12 12 12 11 11 11 11 11 11 11 10 10 10 10 10 9 9 9 9 8
18 18 17 17 17 17 17 17 16 16 16 15 15 14 14 14 13 13 13 13 12 12 12 12 11 11 11 11 11 11 11 10 10 10 10 10 9 9 9 9 8 8 8
17 17 17 17 16 16 16 16 16 15 15 14 14 14 13 13 13 12 12 12 12 11 11 11 11 11 11 10 10 10 10 10 9 9 9 9 8 8 8 8 8 7 7
Wind_Speed
8 8 7 7 6 7 8 8 7 6 4 2 3 3 2 2 3 4 7 7 8 8 6 5 5 5 4 4 5 4 3 3 3 2 2 2 4 4 4 4 4 6 9
9 9 8 7 7 7 7 7 7 6 6 3 2 3 3 3 3 4 5 7 8 9 6 5 3 3 4 5 5 4 3 3 3 2 1 1 3 3 3 3 4 5 6
11 11 10 8 7 7 7 7 7 7 7 5 3 3 3 2 3 3 2 3 6 6 7 6 4 3 4 3 3 4 4 3 3 3 3 2 1 1 2 3 4 4 4
11 10 10 9 9 8 7 7 7 7 7 6 4 4 3 3 3 3 2 3 4 4 5 5 5 4 4 3 3 4 3 3 3 2 2 2 2 1 1 2 3 3 4
10 11 10 10 9 8 7 6 7 7 7 6 4 1 2 3 3 3 3 3 3 3 3 4 4 4 3 4 4 4 4 3 3 3 2 3 2 2 1 1 1 2 2
10 10 10 9 8 8 7 6 7 6 6 6 6 4 3 3 4 3 2 2 3 2 2 2 2 3 3 3 3 2 3 3 4 3 3 3 2 2 2 1 1 1 1
10 10 10 10 9 9 8 7 7 7 7 6 6 6 5 5 4 3 3 2 2 2 2 2 2 2 2 3 3 3 3 2 3 3 3 3 2 2 2 2 2 2 1
10 10 11 10 10 10 9 9 8 8 8 7 6 6 6 4 3 3 3 3 2 3 3 3 3 2 2 2 2 1 2 2 2 3 2 2 3 3 3 2 2 2 2
10 11 11 11 10 10 9 9 9 8 8 7 6 5 5 4 4 4 3 3 3 3 4 3 3 3 2 2 2 1 2 3 3 3 3 2 2 2 3 2 2 1 2
10 10 10 10 10 9 9 9 8 8 7 7 6 5 4 5 4 3 3 3 3 4 4 3 3 3 3 2 2 1 2 2 1 1 3 3 2 2 2 2 2 1 0
9 9 9 9 9 9 8 8 8 7 7 7 6 6 5 4 4 3 3 3 2 4 4 3 2 2 3 3 2 1 1 1 1 1 1 1 2 2 2 2 2 2 1
8 9 9 9 8 9 9 8 8 7 6 6 5 5 6 5 5 4 4 4 4 4 4 3 2 2 2 2 3 1 0 1 1 1 1 1 1 2 2 2 2 2 1
8 8 9 9 8 8 8 7 7 7 7 6 6 5 5 6 5 5 4 4 4 4 4 4 3 2 2 2 2 2 1 1 0 1 1 1 1 1 1 2 2 2 2
7 8 8 8 8 8 7 7 7 7 8 7 6 5 5 5 4 4 3 3 2 2 3 3 3 3 2 1 0 0 0 0 0 0 0 1 1 1 1 2 2 2 3
7 8 8 7 8 7 7 6 6 7 8 7 6 6 5 5 5 4 4 3 2 2 2 2 2 2 2 1 1 1 1 1 1 0 1 1 2 2 1 1 2 2 2
6 7 8 8 8 8 8 7 7 7 7 7 6 5 5 5 5 4 4 3 2 2 2 2 2 2 1 2 3 1 3 2 1 1 1 1 2 2 2 2 2 1 2
5 6 7 7 8 8 8 7 7 7 7 7 6 6 6 5 5 5 5 4 4 3 2 3 3 3 2 3 2 0 2 3 2 2 1 2 0 1 1 2 4 4 5
5 6 6 6 7 7 8 7 7 7 7 6 6 6 6 6 5 5 5 5 4 3 3 3 3 3 2 4 3 2 3 3 2 2 2 1 0 1 1 1 3 3 4
3 2 2 3 5 6 7 7 7 6 6 6 6 6 6 6 6 5 5 4 4 3 3 3 3 3 3 4 3 2 2 3 3 2 1 1 0 1 2 2 3 4 4
4 3 2 1 2 4 6 6 6 6 6 5 5 5 5 5 6 6 4 3 3 3 3 3 3 4 3 4 4 3 1 3 2 2 1 1 1 2 2 2 3 4 5
4 3 2 3 3 3 4 5 4 5 5 5 4 4 4 5 5 4 4 4 3 3 3 3 3 3 3 4 5 3 1 2 2 2 2 1 2 3 4 4 3 6 6
4 4 3 3 2 2 4 4 3 3 5 5 5 4 4 4 4 4 4 3 4 3 3 2 2 2 3 3 4 5 4 3 2 2 2 2 3 4 6 5 6 9 8
4 4 4 3 3 3 4 4 3 4 5 5 5 4 4 4 4 4 4 3 3 3 2 2 2 1 1 2 4 5 5 5 3 3 4 5 5 5 5 7 9 7 4
4 4 4 3 3 3 4 3 3 4 5 5 4 4 4 4 4 3 3 3 2 2 2 2 2 2 1 1 1 1 2 3 3 4 6 7 8 6 6 6 5 4 3
4 4 3 4 3 3 4 3 2 3 4 4 4 3 3 4 4 3 2 2 1 2 3 2 2 2 2 2 3 2 1 1 2 3 3 3 3 3 3 3 3 3 3
4 3 4 4 4 3 3 3 2 2 3 3 3 3 2 3 4 4 3 4 3 3 3 3 2 1 2 2 2 1 1 1 2 1 2 3 3 3 3 3 3 3 3
Wind_Direction
166 152 150 146 153 147 137 135 142 141 128 103 103 111 103 88 71 70 51 40 38 26 34 41 44 38 46 37 39 31 19 24 16 43 33 36 68 78 67 47 41 45 41
165 156 161 161 169 152 145 146 147 134 120 114 124 116 104 99 88 67 54 45 44 25 28 46 56 55 57 39 30 33 17 7 18 33 34 41 30 20 78 73 56 43 38
169 167 171 168 165 156 153 150 145 138 138 141 104 96 90 100 114 110 87 57 58 39 19 28 40 46 68 56 36 39 37 7 0 42 47 54 55 334 18 63 72 55 36
170 168 170 167 167 165 160 157 155 149 143 141 148 164 159 141 128 126 130 111 77 57 28 28 26 43 66 56 32 45 22 31 358 359 30 51 86 76 357 4 51 61 53
173 170 168 167 168 160 159 159 152 142 138 138 139 165 131 137 120 113 125 123 107 88 61 32 30 36 56 65 52 43 27 33 24 7 11 15 18 5 79 347 343 31 49
176 170 164 161 158 148 152 153 143 135 140 156 161 166 146 140 134 139 140 151 144 119 96 65 43 51 53 56 50 50 50 43 25 13 24 32 29 360 22 5 355 24 349
175 169 163 163 155 154 161 158 150 152 162 179 175 168 171 176 169 165 163 175 148 131 121 91 58 55 59 61 43 38 28 48 40 27 19 15 19 16 24 26 360 349 307
173 171 167 163 159 163 169 169 167 168 173 187 183 174 173 177 164 172 173 166 141 137 128 122 111 90 66 65 58 38 14 34 37 38 28 9 19 18 31 40 27 354 345
170 167 163 161 163 168 174 174 171 171 178 188 182 179 168 164 167 184 163 146 146 140 132 144 132 121 100 64 57 38 45 30 18 21 22 28 23 22 19 21 46 69 352
168 163 160 162 165 168 170 169 173 174 177 179 180 167 167 165 161 163 149 143 141 135 140 141 141 141 134 115 75 31 27 48 35 42 31 16 8 22 11 3 4 39 121
161 159 156 158 159 157 161 168 173 171 172 175 173 164 168 169 157 153 153 158 160 154 156 157 154 143 134 132 119 98 29 358 335 6 70 23 17 15 355 354 2 9 49
153 152 150 153 156 159 164 171 173 168 168 167 163 165 165 166 164 167 177 181 178 170 162 149 146 137 124 125 133 161 142 311 327 360 39 9 42 20 349 351 353 349 4
144 146 147 154 156 158 164 173 170 163 160 160 168 172 167 166 170 173 178 180 176 166 157 151 152 152 158 168 164 180 184 225 295 17 15 353 36 6 353 350 345 338 349
145 149 149 153 155 159 166 173 169 160 159 161 171 170 170 166 163 161 158 160 161 157 155 153 158 154 147 127 152 177 191 253 276 146 96 51 50 31 348 342 334 343 343
150 150 151 156 158 163 170 174 171 163 162 165 174 176 171 160 154 151 151 154 169 175 158 155 147 134 130 100 52 351 308 271 266 240 168 152 149 108 77 1 339 350 339
153 154 158 164 170 173 177 177 173 166 162 168 174 170 164 154 154 155 156 160 171 178 151 151 145 147 145 112 96 41 331 319 297 271 239 195 175 172 204 252 282 272 281
150 159 167 171 177 179 174 173 171 165 165 172 169 164 162 161 163 162 160 168 170 175 183 181 163 162 161 154 154 208 297 305 310 301 286 290 226 129 187 282 284 275 265
154 165 174 176 176 169 164 165 163 165 168 169 169 168 166 168 164 164 173 177 168 172 189 183 167 165 177 174 180 235 263 272 278 286 283 278 77 4 343 304 293 270 257
99 108 148 165 167 163 162 160 163 164 165 169 171 171 171 169 167 175 180 174 168 174 186 186 180 179 185 182 180 194 266 267 272 270 314 328 242 325 335 319 304 296 283
79 66 52 82 115 139 148 153 160 161 163 162 163 161 162 164 169 176 173 164 167 180 180 181 187 183 174 173 173 177 259 271 279 275 258 272 253 324 316 287 289 293 291
100 102 79 77 75 87 123 144 153 156 148 140 146 152 153 157 162 162 160 158 162 171 182 185 187 174 165 173 179 188 228 272 288 295 291 273 271 284 289 288 274 276 288
104 107 95 81 79 96 114 119 123 122 124 131 138 142 144 155 153 145 152 158 159 171 184 196 195 182 169 164 196 212 233 267 279 288 296 287 287 284 279 279 285 296 304
106 100 98 91 82 81 99 113 116 116 121 124 128 134 137 134 135 143 150 154 157 169 182 184 196 198 174 179 202 217 239 265 270 288 299 303 295 291 282 271 278 288 289
108 107 112 105 89 85 87 94 101 113 120 126 135 140 140 134 131 133 144 149 165 176 183 190 200 198 169 146 167 220 244 265 280 291 298 296 283 272 270 279 276 259 255
114 117 118 109 102 96 96 94 94 116 126 129 127 128 126 130 122 106 98 132 135 163 174 186 180 180 189 206 176 171 215 245 267 291 286 288 289 277 276 277 273 266 268
109 103 103 106 104 97 94 91 88 108 127 129 131 128 125 125 129 125 96 58 84 108 113 114 137 139 155 161 153 189 239 270 293 303 287 287 292 295 299 303 308 310 305
Height
1544 1547 1550 1552 1554 1556 1557 1559 1560 1561 1562 1563 1564 1564 1564 1564 1564 1564 1563 1563 1563 1563 1562 1562 1562 1561 1561 1560 1560 1560 1560 1561 1561 1561 1561 1561 1562 1562 1561 1561 1560 1560 1559
1543 1546 1549 1551 1553 1555 1557 1558 1560 1561 1562 1563 1564 1565 1565 1565 1565 1564 1564 1564 1564 1563 1563 1563 1563 1562 1562 1561 1561 1561 1561 1562 1562 1562 1561 1562 1564 1563 1562 1562 1561 1560 1559
1541 1544 1547 1550 1552 1554 1556 1558 1560 1561 1562 1563 1564 1565 1565 1565 1565 1565 1565 1565 1564 1564 1564 1564 1563 1563 1563 1563 1562 1562 1562 1562 1562 1562 1563 1562 1563 1563 1563 1562 1561 1561 1560
1538 1542 1545 1548 1551 1553 1555 1557 1559 1560 1561 1562 1563 1564 1565 1565 1566 1565 1565 1565 1565 1565 1564 1564 1564 1564 1564 1563 1563 1563 1563 1563 1563 1563 1563 1564 1563 1563 1563 1563 1562 1561 1560
1536 1539 1543 1546 1549 1551 1554 1556 1558 1559 1560 1561 1563 1564 1565 1565 1566 1566 1566 1566 1565 1565 1565 1565 1564 1564 1564 1564 1563 1563 1563 1563 1563 1563 1563 1563 1563 1563 1563 1563 1562 1561 1560
1533 1537 1540 1544 1547 1549 1552 1555 1556 1558 1559 1561 1562 1563 1564 1565 1565 1566 1566 1566 1566 1566 1565 1565 1565 1565 1564 1564 1564 1564 1564 1563 1564 1564 1564 1564 1563 1563 1563 1562 1562 1561 1560
1530 1534 1538 1541 1544 1547 1550 1553 1554 1556 1558 1559 1561 1562 1563 1564 1565 1565 1566 1566 1566 1566 1565 1565 1565 1565 1565 1565 1564 1564 1564 1564 1564 1564 1564 1564 1563 1563 1563 1562 1561 1561 1560
1527 1531 1535 1538 1542 1545 1548 1550 1552 1554 1556 1558 1559 1561 1562 1563 1564 1564 1565 1565 1566 1565 1565 1565 1565 1565 1565 1565 1564 1564 1564 1564 1564 1564 1564 1564 1563 1563 1562 1562 1561 1560 1560
1525 1528 1532 1536 1539 1543 1546 1548 1550 1553 1554 1556 1558 1560 1561 1562 1563 1563 1564 1564 1565 1565 1565 1565 1565 1565 1565 1565 1564 1564 1564 1564 1564 1564 1564 1563 1563 1563 1562 1562 1561 1561 1559
1523 1526 1530 1534 1537 1540 1544 1546 1549 1551 1553 1555 1556 1558 1559 1560 1561 1562 1563 1563 1564 1564 1564 1565 1565 1565 1564 1564 1564 1564 1564 1564 1564 1564 1563 1563 1562 1562 1562 1561 1561 1560 1560
1520 1524 1528 1532 1535 1539 1542 1544 1547 1549 1551 1553 1554 1556 1558 1559 1560 1561 1561 1562 1563 1563 1564 1564 1564 1564 1564 1564 1564 1563 1563 1563 1563 1563 1563 1562 1562 1561 1561 1560 1560 1559 1559
1519 1522 1526 1530 1533 1536 1539 1542 1544 1547 1549 1551 1553 1554 1556 1557 1558 1559 1560 1561 1562 1562 1563 1563 1563 1563 1563 1563 1563 1563 1563 1563 1563 1562 1562 1562 1561 1561 1560 1560 1559 1558 1558
1518 1521 1524 1528 1531 1534 1537 1540 1542 1544 1547 1549 1551 1552 1554 1555 1556 1557 1558 1559 1560 1561 1562 1562 1562 1562 1562 1562 1562 1562 1562 1562 1562 1561 1561 1561 1560 1560 1559 1559 1558 1557 1556
1517 1520 1523 1526 1529 1532 1535 1538 1540 1542 1544 1546 1548 1550 1551 1553 1554 1555 1556 1557 1558 1559 1560 1561 1561 1561 1561 1561 1561 1561 1561 1561 1561 1561 1560 1560 1559 1559 1558 1557 1557 1556 1555
1517 1519 1522 1525 1528 1531 1533 1536 1538 1540 1542 1544 1545 1547 1549 1550 1551 1553 1554 1555 1556 1557 1558 1559 1559 1559 1560 1560 1560 1560 1560 1559 1559 1559 1559 1558 1558 1557 1557 1556 1555 1554 1553
1516 1518 1521 1524 1526 1529 1531 1534 1536 1538 1539 1541 1543 1545 1546 1548 1549 1550 1551 1552 1554 1555 1556 1556 1557 1557 1557 1558 1558 1558 1558 1558 1558 1558 1557 1557 1556 1555 1555 1554 1553 1553 1552
1515 1517 1520 1522 1524 1526 1529 1531 1533 1535 1536 1538 1540 1542 1543 1544 1546 1547 1548 1549 1551 1552 1553 1554 1554 1554 1555 1555 1556 1556 1556 1556 1556 1555 1555 1555 1554 1553 1552 1552 1551 1550 1549
1514 1516 1518 1520 1522 1524 1526 1528 1530 1532 1534 1535 1537 1539 1540 1541 1543 1544 1545 1546 1548 1549 1550 1550 1551 1552 1552 1553 1553 1553 1553 1553 1553 1553 1553 1552 1551 1550 1550 1548 1547 1547 1546
1513 1515 1517 1519 1520 1522 1524 1526 1528 1529 1531 1532 1534 1535 1537 1538 1539 1541 1542 1543 1544 1545 1547 1548 1548 1549 1549 1550 1550 1550 1550 1550 1550 1550 1550 1549 1549 1548 1547 1546 1544 1543 1542
1512 1513 1515 1517 1518 1520 1522 1523 1525 1527 1528 1529 1531 1533 1534 1535 1536 1538 1539 1540 1541 1542 1544 1544 1545 1546 1546 1547 1547 1547 1547 1547 1547 1546 1546 1546 1545 1545 1543 1542 1541 1539 1538
1511 1512 1513 1515 1516 1518 1519 1521 1523 1524 1525 1527 1529 1530 1531 1533 1534 1535 1536 1537 1538 1540 1541 1541 1542 1543 1543 1544 1544 1544 1544 1543 1543 1543 1542 1542 1541 1541 1540 1539 1537 1536 1535
1510 1511 1512 1513 1515 1516 1518 1519 1520 1522 1524 1525 1526 1527 1529 1530 1531 1532 1533 1535 1536 1537 1537 1538 1539 1540 1540 1540 1540 1540 1540 1540 1539 1539 1538 1538 1537 1537 1536 1535 1533 1532 1531
1510 1511 1511 1513 1514 1515 1516 1517 1519 1520 1522 1523 1524 1525 1526 1527 1528 1529 1530 1531 1533 1533 1534 1535 1535 1536 1536 1536 1537 1537 1536 1536 1536 1535 1535 1534 1533 1532 1531 1530 1529 1528 1526
1509 1510 1511 1512 1513 1514 1515 1516 1517 1518 1520 1521 1522 1523 1524 1525 1526 1527 1528 1529 1529 1530 1531 1531 1532 1532 1533 1533 1533 1533 1532 1532 1531 1531 1530 1530 1529 1528 1527 1526 1524 1523 1522
1508 1509 1510 1511 1511 1512 1513 1514 1516 1517 1518 1519 1520 1521 1522 1522 1523 1524 1525 1526 1527 1528 1528 1529 1529 1529 1529 1530 1530 1530 1529 1528 1528 1527 1526 1525 1524 1523 1522 1521 1520 1519 1518
1507 1508 1509 1509 1510 1511 1512 1513 1514 1515 1516 1516 1517 1518 1519 1520 1521 1522 1523 1523 1525 1525 1526 1526 1527 1526 1527 1527 1526 1526 1526 1525 1524 1524 1522 1521 1520 1519 1518 1517 1516 1515 1513